Location: Unspecified
(43.4680°N, 87.1740°E)
Time: 13:13:50
(UTC+00:00)

Cosmos 2341 Rocket - Pass Details

Date: 17 January 2020
Orbit: 967 x 1005 km, 82.9° (Epoch: 16 February)

Event Time Altitude Azimuth Distance (km) Brightness Sun altitude
Rises 12:23:38 0° 169° (SSE) 3,718 7.1 -14.5°
Reaches altitude 10° 12:26:13 10° 164° (SSE) 2,772 6.4 -15.0°
Maximum altitude 12:32:20 50° 91° (E) 1,258 4.2 -16.1°
Drops below altitude 10° 12:38:26 10° 18° (NNE) 2,777 6.1 -17.2°
Sets 12:41:02 0° 13° (NNE) 3,726 6.8 -17.6°
